Location: Carbonear
(47.7333°N, 53.2500°W)
Time: 21:29:50
(UTC+00:00)

STRAND 1 - Pass Details

Date: 08 December 2022
Orbit: 768 x 779 km, 98.4° (Epoch: 01 February)

Event Time Altitude Azimuth Distance (km) Brightness Sun altitude
Rises 08:54:46 0° 149° (SSE) 3,240 ? -21.5°
Reaches altitude 10° 08:57:07 10° 144° (SE) 2,315 ? -21.1°
Maximum altitude 09:02:03 52° 70° (ENE) 958 ? -20.3°
Drops below altitude 10° 09:07:01 10° 355° (N) 2,324 ? -19.5°
Enters shadow 09:08:57 - 351° (N) 3,089 ? -19.2°
